[[{"header":{"parameterUnit":"m.s-1","parameterCategory":1,"la1":30.2991,"la2":30.254,"lo1":-89.0895,"lo2":-89.0444,"dy":0.0017,"dx":0.0017,"nx":28,"ny":28,"refTime":"2025-03-24T21:00:00:Z","depth":0,"parameterNumber":2,"parameterNumberName":"U-component_of_WINDS"},"data":[0,0,0,0,0,0,0,0,0,0,0,0,0,0,0,0,0,0,0,0,0,0,0,0,0,0,0,0,0,0,0,0,0,0,0,0,0,0,0,0,0,0,0,0,0,0,0,0,0,0,0,0,0,0,0,0,0,0,0.6851,0.685,0,0.6777,0.6776,0.6775,0.6744,0.6745,0.6745,0.6745,0.6662,0.666,0.6658,0,0,0,0,0,0,0,0,0,0,0,0,0,0.6959,0.6957,0.6851,0.685,0.6849,0.6777,0.6776,0.6775,0.6744,0.6745,0.6745,0.6745,0.6663,0.666,0.6657,0,0,0,0,0,0,0,0,0,0,0,0,0,0.6901,0.6957,0.6851,0.6826,0.6823,0.6777,0.6776,0.6774,0.6744,0.6745,0.6745,0.6745,0.6664,0.6661,0.6657,0.6629,0,0,0.6646,0.6645,0,0,0,0,0,0,0,0,0.6905,0.6897,0.683,0.6827,0.6824,0.677,0.6783,0.6726,0.6744,0.6774,0.6745,0.6745,0.6698,0.6691,0.6676,0.6626,0.6622,0.6646,0.6644,0.6642,0.6641,0,0,0,0,0,0,0,0.6909,0.69,0.6821,0.6829,0.6825,0.6815,0.6807,0.6772,0.6735,0.6771,0.6769,0.6761,0.6696,0.668,0.6674,0.6621,0.6646,0.6643,0.6641,0.6639,0.654,0.654,0,0,0,0,0,0,0.6918,0.6904,0.6824,0.6819,0.6866,0.6813,0.6804,0.6787,0.6735,0.6728,0.6761,0.676,0.6686,0.6678,0.6671,0.6634,0.6642,0.6639,0.6637,0.6541,0.654,0.6539,0,0,0,0,0,0,0.692,0.6911,0.6827,0.6861,0.6849,0.6811,0.6792,0.6785,0.677,0.6727,0.672,0.6752,0.6686,0.6676,0.664,0.663,0.6637,0.6634,0.6541,0.654,0.654,0.656,0,0,0,0,0,0,0.6924,0.6912,0.6903,0.6861,0.6848,0.6799,0.6791,0.6784,0.6764,0.6762,0.6717,0.671,0.6685,0.6645,0.6636,0.6626,0.6631,0.6542,0.6541,0.654,0.656,0.656,0.656,0,0,0,0,0,0.6928,0.6911,0.6903,0.6894,0.6836,0.6799,0.6791,0.6765,0.6764,0.6753,0.6725,0.6711,0.6633,0.6642,0.6631,0.662,0.6542,0.6541,0.654,0.6559,0.656,0.656,0,0,0,0,0,0,0.6951,0.6905,0.6896,0.6866,0.6837,0.6794,0.678,0.6766,0.6735,0.6735,0.6702,0.6691,0.6657,0.6635,0.6645,0.6588,0.6586,0.6583,0.6605,0.6604,0.6604,0.661,0.6628,0,0,0,0,0,0.6954,0.693,0.6889,0.6866,0.6852,0.6819,0.6801,0.6784,0.6752,0.6738,0.6708,0.6675,0.6643,0.6623,0.6591,0.6556,0.6544,0.6542,0.6543,0.6543,0.654,0.6517,0.6515,0.6536,0.6536,0.6536,0,0,0.6957,0.6929,0.6915,0.687,0.6846,0.6819,0.6808,0.6781,0.676,0.6733,0.6698,0.6674,0.6635,0.6599,0.6581,0.6579,0.6532,0.6541,0.6542,0.6539,0.6516,0.6514,0.6512,0.6535,0.6535,0.6535,0,0,0.6949,0.6927,0.6904,0.688,0.6843,0.6821,0.6815,0.6774,0.6758,0.6722,0.6701,0.6674,0.662,0.6592,0.6571,0.655,0.6535,0.6541,0.6541,0.6519,0.6517,0.6515,0.6506,0.6503,0.6538,0.6538,0.6538,0,0.6958,0.6919,0.6894,0.6867,0.6847,0.6823,0.6799,0.6775,0.6729,0.6714,0.6713,0.6643,0.6615,0.6571,0.6566,0.655,0.6541,0.6546,0.652,0.6518,0.6516,0.6506,0.6503,0.6539,0.6539,0.6539,0.6539,0,0.693,0.6903,0.6889,0.6847,0.6824,0.6799,0.6767,0.6747,0.6731,0.6707,0.6669,0.6634,0.6594,0.6582,0.6566,0.6535,0.6534,0.6527,0.6523,0.6515,0.6505,0.6502,0.654,0.654,0.654,0.654,0,0,0.6936,0.688,0.6875,0.6855,0.6812,0.6789,0.676,0.6723,0.6705,0.6673,0.6647,0.6601,0.6593,0.6569,0.6549,0.653,0.6513,0.6524,0.6522,0.6521,0.6473,0.6478,0.6474,0.6503,0.6502,0.6501,0.6476,0,0.6922,0.6873,0.6849,0.6809,0.6782,0.6758,0.6733,0.6702,0.6679,0.665,0.6623,0.6591,0.6584,0.6569,0.6549,0.6519,0.6502,0.6521,0.6475,0.6473,0.6484,0.647,0.6475,0.6453,0.6472,0.6471,0.6471,0,0.6899,0.6869,0.6828,0.6786,0.6773,0.6752,0.6714,0.6688,0.6651,0.6635,0.6607,0.6587,0.6553,0.6553,0.6504,0.6517,0.6496,0.6478,0.6476,0.647,0.6471,0.6461,0.6445,0.6441,0.6465,0.6465,0.6466,0,0.6906,0.6855,0.6823,0.6806,0.6757,0.6742,0.672,0.6684,0.6662,0.6628,0.6612,0.6574,0.6553,0.6522,0.6491,0.6494,0.6443,0.6441,0.6427,0.6427,0.6416,0.6417,0.6395,0.6406,0.6406,0.6406,0.6406,0,0.6892,0.6867,0.6825,0.6805,0.6775,0.6746,0.6716,0.6692,0.6659,0.6632,0.6608,0.6582,0.6544,0.6512,0.6487,0.6448,0.6439,0.6423,0.6416,0.6424,0.6426,0.6409,0.6409,0.6405,0.6405,0.6405,0.6405,0,0.6895,0.6866,0.6829,0.6786,0.6774,0.6753,0.6714,0.6692,0.6667,0.6633,0.6623,0.6583,0.6544,0.651,0.6458,0.6441,0.6401,0.6394,0.6414,0.641,0.6396,0.6397,0.6362,0.6354,0.6372,0.6371,0.6371,0,0.6888,0.6868,0.6822,0.6803,0.6782,0.6752,0.6729,0.6698,0.6675,0.663,0.6613,0.6573,0.6539,0.6477,0.6442,0.6401,0.6391,0.6382,0.6385,0.6393,0.6389,0.639,0.6386,0.6381,0.6381,0.6381,0.6381,0,0.6877,0.6863,0.6833,0.6797,0.6772,0.6741,0.671,0.6695,0.6657,0.6632,0.6593,0.6567,0.6514,0.6473,0.6428,0.6402,0.6384,0.6381,0.6375,0.6382,0.6394,0.6385,0.6412,0.6381,0.6381,0.6381,0.6381,0.6381,0.6873,0.6854,0.6818,0.6784,0.6757,0.6728,0.6705,0.6677,0.6645,0.6601,0.6583,0.6543,0.6502,0.6441,0.6415,0.638,0.6377,0.6369,0.6366,0.6365,0.6365,0.6401,0.6372,0.6372,0.6372,0.6372,0.6372,0,0.686,0.6835,0.6805,0.6762,0.6735,0.6722,0.6686,0.6663,0.6629,0.6594,0.6561,0.6514,0.6474,0.6434,0.6391,0.6371,0.6361,0.636,0.636,0.6354,0.6371,0.638,0.6368,0.6368,0.6368,0.6368,0.6368,0.6368,0.685,0.6815,0.6797,0.6747,0.6722,0.6684,0.6664,0.6635,0.6607,0.6557,0.6524,0.6499,0.6461,0.6414,0.6375,0.6364,0.6348,0.6349,0.6336,0.6352,0.6353,0.6354,0.6362,0.6347,0.6347,0.6321,0.6321,0.6321]},{"header":{"parameterUnit":"m.s-1","parameterCategory":1,"la1":30.2991,"la2":30.254,"lo1":-89.0895,"lo2":-89.0444,"dy":0.0017,"dx":0.0017,"nx":28,"ny":28,"refTime":"2025-03-24T21:00:00:Z","depth":0,"parameterNumber":3,"parameterNumberName":"V-component_of_WINDS"},"data":[0,0,0,0,0,0,0,0,0,0,0,0,0,0,0,0,0,0,0,0,0,0,0,0,0,0,0,0,0,0,0,0,0,0,0,0,0,0,0,0,0,0,0,0,0,0,0,0,0,0,0,0,0,0,0,0,0,0,4.3396,4.3396,0,4.3375,4.3375,4.3375,4.3364,4.3364,4.3364,4.3364,4.334,4.3339,4.3338,0,0,0,0,0,0,0,0,0,0,0,0,0,4.3422,4.3422,4.3396,4.3396,4.3395,4.3375,4.3375,4.3374,4.3364,4.3364,4.3364,4.3364,4.334,4.3339,4.3338,0,0,0,0,0,0,0,0,0,0,0,0,0,4.3407,4.3422,4.3396,4.3388,4.3387,4.3375,4.3375,4.3374,4.3364,4.3364,4.3364,4.3364,4.334,4.3339,4.3338,4.3332,0,0,4.3335,4.3335,0,0,0,0,0,0,0,0,4.3408,4.3406,4.3389,4.3388,4.3387,4.3372,4.3375,4.336,4.3364,4.3373,4.3364,4.3364,4.335,4.3348,4.3344,4.333,4.3329,4.3335,4.3334,4.3334,4.3334,0,0,0,0,0,0,0,4.3409,4.3407,4.3388,4.3389,4.3388,4.3384,4.3382,4.3372,4.3362,4.3372,4.3371,4.3369,4.335,4.3345,4.3344,4.3329,4.3335,4.3334,4.3334,4.3333,4.3305,4.3305,0,0,0,0,0,0,4.3412,4.3408,4.3388,4.3387,4.3398,4.3383,4.3381,4.3377,4.3362,4.3359,4.3369,4.3369,4.3347,4.3345,4.3343,4.3332,4.3334,4.3333,4.3333,4.3305,4.3305,4.3305,0,0,0,0,0,0,4.3412,4.341,4.3389,4.3397,4.3394,4.3383,4.3379,4.3377,4.3372,4.336,4.3357,4.3367,4.3347,4.3344,4.3334,4.3331,4.3333,4.3332,4.3305,4.3305,4.3305,4.3312,0,0,0,0,0,0,4.3413,4.341,4.3409,4.3397,4.3394,4.3382,4.3379,4.3376,4.3371,4.337,4.3357,4.3355,4.3347,4.3335,4.3333,4.333,4.3331,4.3305,4.3305,4.3305,4.3312,4.3312,4.3312,0,0,0,0,0,4.3414,4.3412,4.3409,4.3407,4.3392,4.3382,4.338,4.3372,4.3371,4.3369,4.336,4.3355,4.3332,4.3335,4.3332,4.3328,4.3305,4.3305,4.3305,4.3312,4.3312,4.3312,0,0,0,0,0,0,4.3423,4.341,4.3407,4.3401,4.3393,4.338,4.3377,4.3373,4.3364,4.3363,4.3353,4.335,4.334,4.3333,4.3336,4.3319,4.3318,4.3317,4.3324,4.3324,4.3324,4.3326,4.333,0,0,0,0,0,4.3425,4.3419,4.3407,4.3403,4.3399,4.3389,4.3384,4.3379,4.3369,4.3365,4.3356,4.3346,4.3336,4.333,4.332,4.331,4.3306,4.3306,4.3306,4.3306,4.3305,4.3297,4.3296,4.3303,4.3303,4.3303,0,0,4.3428,4.342,4.3417,4.3405,4.3398,4.339,4.3386,4.3379,4.3373,4.3364,4.3354,4.3346,4.3333,4.3323,4.3318,4.3317,4.3302,4.3306,4.3306,4.3305,4.3296,4.3295,4.3295,4.3303,4.3303,4.3303,0,0,4.3429,4.3423,4.3418,4.3411,4.34,4.3393,4.3391,4.3379,4.3374,4.3363,4.3356,4.3347,4.3331,4.3322,4.3315,4.3309,4.3303,4.3306,4.3306,4.3298,4.3297,4.3297,4.3292,4.3291,4.3305,4.3305,4.3305,0,4.3433,4.3423,4.3416,4.3408,4.3402,4.3394,4.3387,4.338,4.3367,4.3362,4.3361,4.3339,4.333,4.3315,4.3314,4.3309,4.3305,4.3308,4.3298,4.3298,4.3297,4.3293,4.3291,4.3306,4.3306,4.3306,4.3306,0,4.3428,4.3421,4.3418,4.3405,4.3399,4.3392,4.3381,4.3375,4.3369,4.3361,4.3349,4.3337,4.3324,4.332,4.3315,4.3304,4.3303,4.3301,4.3299,4.3297,4.3292,4.3291,4.3306,4.3306,4.3306,4.3306,0,0,4.3436,4.3418,4.3417,4.341,4.3396,4.3389,4.3381,4.3368,4.3362,4.3352,4.3343,4.3328,4.3325,4.3317,4.331,4.3302,4.3295,4.33,4.3299,4.3298,4.328,4.3281,4.328,4.3292,4.3291,4.3291,4.328,0,4.3434,4.342,4.3412,4.34,4.3392,4.3383,4.3375,4.3364,4.3356,4.3346,4.3336,4.3325,4.3322,4.3317,4.3309,4.3298,4.3291,4.3299,4.328,4.328,4.3283,4.3278,4.328,4.327,4.3278,4.3278,4.3278,0,4.3431,4.3421,4.3409,4.3394,4.339,4.3383,4.337,4.3361,4.3348,4.3342,4.3332,4.3324,4.3312,4.3311,4.3292,4.3297,4.3289,4.3282,4.3281,4.3278,4.3278,4.3273,4.3267,4.3265,4.3276,4.3276,4.3276,0,4.3435,4.3419,4.3409,4.3404,4.3387,4.3381,4.3374,4.336,4.3353,4.334,4.3334,4.332,4.3312,4.33,4.3287,4.3288,4.3268,4.3268,4.3261,4.3261,4.3257,4.3257,4.3248,4.3253,4.3253,4.3254,4.3254,0,4.3434,4.3426,4.3411,4.3405,4.3395,4.3384,4.3374,4.3365,4.3353,4.3342,4.3333,4.3324,4.3308,4.3296,4.3286,4.327,4.3266,4.3259,4.3257,4.326,4.326,4.3254,4.3253,4.3253,4.3253,4.3253,4.3253,0,4.3438,4.3427,4.3416,4.34,4.3395,4.3389,4.3374,4.3366,4.3356,4.3343,4.334,4.3324,4.3308,4.3295,4.3274,4.3267,4.325,4.3247,4.3255,4.3253,4.3247,4.3247,4.3232,4.3228,4.3237,4.3237,4.3237,0,4.3437,4.3431,4.3414,4.3407,4.34,4.3389,4.3381,4.3369,4.336,4.3343,4.3336,4.332,4.3307,4.3281,4.3267,4.325,4.3245,4.3241,4.3243,4.3245,4.3243,4.3243,4.3241,4.3241,4.3241,4.3241,4.3241,0,4.3436,4.3431,4.3421,4.3407,4.3398,4.3387,4.3375,4.3369,4.3354,4.3344,4.3329,4.3318,4.3296,4.3279,4.326,4.3249,4.3241,4.324,4.3238,4.324,4.3244,4.324,4.3253,4.3241,4.3241,4.3241,4.3241,4.3241,4.3437,4.343,4.3417,4.3404,4.3394,4.3383,4.3374,4.3363,4.335,4.3332,4.3325,4.3309,4.3291,4.3265,4.3254,4.3239,4.3238,4.3234,4.3233,4.3232,4.3231,4.3247,4.3235,4.3235,4.3235,4.3235,4.3235,0,4.3434,4.3425,4.3414,4.3398,4.3387,4.3382,4.3367,4.3358,4.3344,4.333,4.3316,4.3296,4.3279,4.3262,4.3243,4.3234,4.3229,4.3229,4.3229,4.3226,4.3235,4.3238,4.3233,4.3233,4.3233,4.3233,4.3233,4.3233,4.3432,4.3419,4.3412,4.3393,4.3383,4.3368,4.336,4.3348,4.3336,4.3315,4.3301,4.329,4.3273,4.3252,4.3235,4.323,4.3222,4.3223,4.3217,4.3225,4.3226,4.3226,4.3229,4.3222,4.3222,4.3209,4.3208,4.3208]}]]